[[{"header":{"parameterUnit":"m.s-1","parameterCategory":1,"la1":30.2991,"la2":30.254,"lo1":-89.0895,"lo2":-89.0444,"dy":0.0017,"dx":0.0017,"nx":28,"ny":28,"refTime":"2023-08-23T09:00:00:Z","depth":0,"parameterNumber":2,"parameterNumberName":"U-component_of_WINDS"},"data":[0,0,0,0,0,0,0,0,0,0,0,0,0,0,0,0,0,0,0,0,0,0,0,0,0,0,0,0,0,0,0,0,0,0,0,0,0,0,0,0,0,0,0,0,0,0,0,0,0,0,0,0,0,0,0,0,0,0,-0.4895,-0.4894,0,-0.4871,-0.4871,-0.4871,-0.4843,-0.4843,-0.4842,-0.4842,-0.4819,-0.4819,-0.4818,0,0,0,0,0,0,0,0,0,0,0,0,0,-0.4917,-0.4917,-0.4895,-0.4894,-0.4894,-0.4871,-0.4871,-0.4871,-0.4843,-0.4843,-0.4842,-0.4842,-0.4819,-0.4819,-0.4818,0,0,0,0,0,0,0,0,0,0,0,0,0,-0.4902,-0.4917,-0.4895,-0.4878,-0.4876,-0.4871,-0.4871,-0.487,-0.4843,-0.4843,-0.4842,-0.4842,-0.4819,-0.4819,-0.4818,-0.4829,0,0,-0.4817,-0.4817,0,0,0,0,0,0,0,0,-0.4903,-0.4901,-0.488,-0.4879,-0.4877,-0.4859,-0.487,-0.4856,-0.4844,-0.4856,-0.4842,-0.4841,-0.4833,-0.4831,-0.4828,-0.4828,-0.4827,-0.4817,-0.4817,-0.4817,-0.4817,0,0,0,0,0,0,0,-0.4904,-0.4902,-0.4885,-0.488,-0.4878,-0.4872,-0.4869,-0.4867,-0.4848,-0.4855,-0.4853,-0.485,-0.4832,-0.4829,-0.4828,-0.4826,-0.4817,-0.4817,-0.4817,-0.4816,-0.4833,-0.4834,0,0,0,0,0,0,-0.4907,-0.4903,-0.4886,-0.4885,-0.4889,-0.4872,-0.4868,-0.4866,-0.4848,-0.4845,-0.4851,-0.4849,-0.483,-0.4828,-0.4827,-0.4838,-0.4817,-0.4816,-0.4816,-0.4833,-0.4833,-0.4834,0,0,0,0,0,0,-0.4908,-0.4906,-0.4887,-0.4893,-0.489,-0.4872,-0.4869,-0.4866,-0.4862,-0.4845,-0.4842,-0.4851,-0.4829,-0.4827,-0.4828,-0.4837,-0.4816,-0.4816,-0.4832,-0.4833,-0.4834,-0.4861,0,0,0,0,0,0,-0.4909,-0.4906,-0.491,-0.4894,-0.489,-0.4889,-0.487,-0.4866,-0.4862,-0.4859,-0.4845,-0.4841,-0.4828,-0.4829,-0.4828,-0.4836,-0.4816,-0.4831,-0.4832,-0.4833,-0.4859,-0.4863,-0.4866,0,0,0,0,0,-0.491,-0.4919,-0.491,-0.4908,-0.4894,-0.489,-0.4888,-0.4872,-0.4863,-0.4866,-0.4855,-0.4842,-0.4836,-0.4829,-0.4828,-0.4836,-0.483,-0.4832,-0.4833,-0.4858,-0.4862,-0.4865,0,0,0,0,0,0,-0.4937,-0.4916,-0.4907,-0.4911,-0.4902,-0.4885,-0.4889,-0.4877,-0.4871,-0.4869,-0.485,-0.4847,-0.4851,-0.4843,-0.4837,-0.4845,-0.4831,-0.4833,-0.485,-0.4854,-0.4857,-0.4859,-0.4815,0,0,0,0,0,-0.4943,-0.4941,-0.4923,-0.4928,-0.4924,-0.4908,-0.4905,-0.4894,-0.4884,-0.4881,-0.4869,-0.4861,-0.4857,-0.4855,-0.4851,-0.4858,-0.4854,-0.4862,-0.4866,-0.4868,-0.487,-0.4874,-0.4877,-0.4839,-0.4839,-0.4839,0,0,-0.4957,-0.4945,-0.4945,-0.4934,-0.4926,-0.4924,-0.4905,-0.4904,-0.4903,-0.488,-0.4881,-0.4873,-0.4862,-0.4866,-0.4868,-0.486,-0.488,-0.487,-0.4873,-0.4873,-0.4875,-0.4879,-0.4882,-0.484,-0.484,-0.484,0,0,-0.498,-0.4971,-0.4975,-0.4967,-0.4955,-0.4944,-0.4945,-0.4929,-0.4923,-0.4923,-0.4907,-0.4905,-0.4899,-0.4892,-0.4888,-0.4909,-0.4897,-0.4908,-0.4925,-0.4929,-0.4932,-0.4934,-0.4943,-0.4946,-0.4909,-0.4909,-0.4909,0,-0.4999,-0.4995,-0.4978,-0.4978,-0.4974,-0.4954,-0.4957,-0.4951,-0.4938,-0.4936,-0.4928,-0.492,-0.4911,-0.4914,-0.4919,-0.4916,-0.4917,-0.491,-0.4933,-0.4935,-0.4937,-0.4945,-0.4948,-0.4911,-0.4911,-0.4911,-0.491,0,-0.5019,-0.5017,-0.5021,-0.5009,-0.5005,-0.5007,-0.4991,-0.4989,-0.4978,-0.4968,-0.4969,-0.4957,-0.495,-0.495,-0.494,-0.4951,-0.4947,-0.4936,-0.4922,-0.4943,-0.495,-0.4952,-0.4913,-0.4912,-0.4912,-0.4912,0,0,-0.506,-0.5038,-0.504,-0.5034,-0.5019,-0.5018,-0.5019,-0.5012,-0.5011,-0.5003,-0.5004,-0.4999,-0.4989,-0.4984,-0.4972,-0.4976,-0.4994,-0.4964,-0.4964,-0.4971,-0.5007,-0.5016,-0.5019,-0.4986,-0.4986,-0.4986,-0.5008,0,-0.5081,-0.5081,-0.5066,-0.5071,-0.5069,-0.505,-0.5051,-0.5042,-0.5033,-0.503,-0.5019,-0.5016,-0.5003,-0.5,-0.5002,-0.4991,-0.5001,-0.4989,-0.4987,-0.4987,-0.4991,-0.5023,-0.5032,-0.5053,-0.501,-0.5011,-0.5011,0,-0.5106,-0.5099,-0.5104,-0.5089,-0.5088,-0.5089,-0.5082,-0.5079,-0.5069,-0.5062,-0.5057,-0.5044,-0.5044,-0.503,-0.5031,-0.5023,-0.5021,-0.5016,-0.5016,-0.5016,-0.5001,-0.5024,-0.5059,-0.5063,-0.5015,-0.5015,-0.5015,0,-0.5136,-0.5128,-0.513,-0.5126,-0.5109,-0.511,-0.5103,-0.5092,-0.5089,-0.5082,-0.508,-0.5074,-0.5071,-0.5066,-0.5052,-0.5043,-0.5055,-0.5039,-0.5049,-0.505,-0.5053,-0.5053,-0.5089,-0.5051,-0.5051,-0.5051,-0.5051,0,-0.5162,-0.5166,-0.5143,-0.5145,-0.5149,-0.5131,-0.5135,-0.5126,-0.5117,-0.5116,-0.5099,-0.5099,-0.508,-0.5078,-0.5066,-0.5069,-0.5068,-0.5062,-0.5059,-0.5064,-0.5065,-0.5063,-0.5061,-0.5052,-0.5051,-0.5051,-0.5051,0,-0.5197,-0.5182,-0.5183,-0.5166,-0.5162,-0.5165,-0.5151,-0.5152,-0.5141,-0.5141,-0.514,-0.5123,-0.512,-0.5105,-0.5098,-0.509,-0.5097,-0.5091,-0.5101,-0.5099,-0.511,-0.5109,-0.5146,-0.5151,-0.5109,-0.5109,-0.511,0,-0.5215,-0.5217,-0.5201,-0.5199,-0.5193,-0.519,-0.5187,-0.5169,-0.5167,-0.5155,-0.5157,-0.5153,-0.5148,-0.5144,-0.5131,-0.5126,-0.512,-0.5133,-0.5119,-0.5124,-0.5121,-0.5121,-0.5122,-0.5137,-0.5137,-0.5138,-0.5138,0,-0.5249,-0.5241,-0.5237,-0.523,-0.5226,-0.522,-0.5212,-0.5212,-0.5193,-0.5191,-0.5187,-0.5183,-0.5176,-0.5172,-0.5165,-0.5158,-0.5145,-0.5142,-0.5145,-0.515,-0.5156,-0.5153,-0.511,-0.5142,-0.5141,-0.5141,-0.5141,-0.5141,-0.5276,-0.5277,-0.5266,-0.5262,-0.5254,-0.5248,-0.5248,-0.5237,-0.5233,-0.5226,-0.5216,-0.5214,-0.5204,-0.5192,-0.5186,-0.5185,-0.5177,-0.518,-0.5181,-0.5183,-0.5185,-0.5155,-0.5183,-0.5183,-0.5183,-0.5183,-0.5183,0,-0.531,-0.5301,-0.5297,-0.5288,-0.5284,-0.5272,-0.5263,-0.5262,-0.526,-0.5251,-0.5247,-0.5243,-0.5238,-0.5225,-0.522,-0.5221,-0.5215,-0.522,-0.522,-0.5219,-0.5192,-0.5191,-0.5225,-0.5225,-0.5225,-0.5225,-0.5225,-0.5225,-0.5327,-0.5329,-0.532,-0.5318,-0.5309,-0.5307,-0.5303,-0.5297,-0.529,-0.5286,-0.5282,-0.5274,-0.5264,-0.5257,-0.5253,-0.5249,-0.5248,-0.5256,-0.525,-0.5225,-0.5221,-0.5217,-0.5216,-0.5255,-0.5255,-0.5278,-0.5278,-0.5278]},{"header":{"parameterUnit":"m.s-1","parameterCategory":1,"la1":30.2991,"la2":30.254,"lo1":-89.0895,"lo2":-89.0444,"dy":0.0017,"dx":0.0017,"nx":28,"ny":28,"refTime":"2023-08-23T09:00:00:Z","depth":0,"parameterNumber":3,"parameterNumberName":"V-component_of_WINDS"},"data":[0,0,0,0,0,0,0,0,0,0,0,0,0,0,0,0,0,0,0,0,0,0,0,0,0,0,0,0,0,0,0,0,0,0,0,0,0,0,0,0,0,0,0,0,0,0,0,0,0,0,0,0,0,0,0,0,0,0,3.2238,3.2238,0,3.2226,3.2226,3.2226,3.2164,3.2162,3.2161,3.2159,3.2148,3.2149,3.215,0,0,0,0,0,0,0,0,0,0,0,0,0,3.2209,3.221,3.2238,3.2238,3.2238,3.2226,3.2226,3.2226,3.2164,3.2162,3.216,3.2159,3.2147,3.2149,3.215,0,0,0,0,0,0,0,0,0,0,0,0,0,3.2212,3.221,3.2238,3.2206,3.2203,3.2226,3.2226,3.2226,3.2164,3.2162,3.216,3.2158,3.2147,3.2149,3.215,3.2204,0,0,3.2155,3.2156,0,0,0,0,0,0,0,0,3.2212,3.2213,3.2211,3.2208,3.2205,3.2194,3.2211,3.2218,3.2165,3.2179,3.2159,3.2157,3.2165,3.2165,3.2168,3.2204,3.2203,3.2155,3.2156,3.2157,3.2157,0,0,0,0,0,0,0,3.2212,3.2213,3.2233,3.2211,3.2207,3.2192,3.219,3.2212,3.2185,3.2178,3.2173,3.2172,3.2163,3.2166,3.2167,3.2203,3.2155,3.2157,3.2158,3.2158,3.2281,3.2284,0,0,0,0,0,0,3.2216,3.2214,3.2234,3.2233,3.2203,3.2194,3.2192,3.22,3.2184,3.218,3.2174,3.217,3.2165,3.2165,3.2166,3.2227,3.2157,3.2158,3.2159,3.2279,3.2282,3.2284,0,0,0,0,0,0,3.2216,3.2219,3.2234,3.2222,3.2223,3.2197,3.2206,3.2201,3.2204,3.2182,3.2177,3.2183,3.2163,3.2164,3.2195,3.2226,3.2159,3.216,3.2276,3.228,3.2283,3.235,0,0,0,0,0,0,3.2215,3.2219,3.2239,3.2223,3.2224,3.2263,3.2208,3.2202,3.2207,3.22,3.2188,3.2184,3.2161,3.2193,3.2196,3.2227,3.2162,3.2273,3.2278,3.2282,3.2345,3.2355,3.2364,0,0,0,0,0,3.2214,3.2259,3.224,3.2243,3.2248,3.2265,3.2265,3.2238,3.2209,3.2229,3.2215,3.2184,3.2222,3.2196,3.22,3.2231,3.2271,3.2277,3.2282,3.2341,3.2353,3.2364,0,0,0,0,0,0,3.2279,3.2256,3.2235,3.2276,3.2273,3.2254,3.2279,3.2253,3.2258,3.2252,3.2218,3.2216,3.2252,3.2245,3.2216,3.2282,3.2242,3.2248,3.2285,3.2297,3.2307,3.2307,3.2163,0,0,0,0,0,3.2298,3.2313,3.2292,3.233,3.233,3.2305,3.2311,3.229,3.2286,3.2284,3.2272,3.227,3.2281,3.2289,3.2298,3.2344,3.234,3.2368,3.2378,3.2386,3.2391,3.2414,3.2425,3.2302,3.2302,3.2301,0,0,3.2337,3.2327,3.2338,3.2343,3.2338,3.2354,3.2304,3.2324,3.2335,3.2287,3.2315,3.2307,3.2301,3.234,3.2356,3.2335,3.2424,3.2392,3.2399,3.24,3.242,3.2432,3.2442,3.2305,3.2305,3.2304,0,0,3.2417,3.2411,3.2441,3.2437,3.243,3.2413,3.2421,3.2407,3.2399,3.2426,3.239,3.2404,3.2425,3.2422,3.2423,3.2502,3.2474,3.2506,3.2556,3.2579,3.2589,3.2597,3.2624,3.2634,3.2512,3.2512,3.2512,0,3.2466,3.2489,3.246,3.2481,3.2484,3.2441,3.2471,3.2469,3.2466,3.2469,3.2446,3.247,3.2464,3.25,3.2519,3.2523,3.2529,3.2507,3.259,3.2598,3.2605,3.2631,3.2641,3.2516,3.2516,3.2515,3.2515,0,3.255,3.2566,3.2592,3.2589,3.2595,3.2621,3.2595,3.2605,3.2584,3.257,3.2598,3.2589,3.2595,3.2602,3.2583,3.2636,3.2623,3.2596,3.2554,3.2622,3.2645,3.2654,3.2522,3.252,3.2519,3.2518,0,0,3.2669,3.2649,3.2659,3.2657,3.2646,3.2659,3.2683,3.2688,3.2697,3.2697,3.2715,3.2734,3.2708,3.2709,3.2689,3.2709,3.2771,3.2679,3.2678,3.2695,3.2828,3.2848,3.286,3.2753,3.2754,3.2756,3.2828,0,3.2743,3.2782,3.2756,3.28,3.2814,3.2774,3.2795,3.2791,3.2779,3.2789,3.2776,3.2789,3.2754,3.2755,3.2773,3.2759,3.2797,3.2754,3.2769,3.277,3.277,3.2872,3.2893,3.2961,3.2837,3.2839,3.284,0,3.2835,3.2838,3.2883,3.2869,3.2874,3.2893,3.2895,3.2907,3.2901,3.2891,3.2893,3.2867,3.289,3.285,3.2881,3.2852,3.2857,3.2851,3.2853,3.2852,3.2808,3.2872,3.2983,3.2993,3.2854,3.2853,3.2852,0,3.2915,3.2931,3.2959,3.2959,3.2944,3.2958,3.2952,3.2945,3.295,3.2953,3.2955,3.2961,3.2964,3.2969,3.2946,3.2919,3.2979,3.2937,3.297,3.2971,3.2983,3.2983,3.3095,3.299,3.299,3.2989,3.2989,0,3.3001,3.3029,3.2995,3.3012,3.3043,3.3013,3.3044,3.3035,3.3029,3.3043,3.301,3.3025,3.2994,3.3005,3.2987,3.3015,3.3017,3.3009,3.3003,3.3011,3.3012,3.3012,3.3006,3.2992,3.2991,3.2991,3.2991,0,3.3095,3.3073,3.3101,3.3084,3.3081,3.3104,3.309,3.3105,3.3091,3.311,3.3112,3.309,3.3102,3.3079,3.3089,3.3077,3.3115,3.3103,3.3116,3.3112,3.3146,3.3142,3.3261,3.3275,3.3162,3.3163,3.3164,0,3.315,3.317,3.3156,3.3163,3.3159,3.3171,3.3176,3.3148,3.3154,3.3149,3.3165,3.3174,3.318,3.3201,3.3185,3.3192,3.3179,3.3221,3.318,3.3187,3.3178,3.3177,3.3178,3.3228,3.323,3.3231,3.3232,0,3.3249,3.3237,3.3244,3.3248,3.3254,3.3256,3.3256,3.3264,3.3234,3.3243,3.3254,3.3258,3.3268,3.3277,3.328,3.3274,3.3248,3.3245,3.3252,3.326,3.3266,3.3261,3.3137,3.3242,3.3241,3.324,3.324,3.3239,3.3324,3.334,3.3332,3.3341,3.3338,3.3338,3.3351,3.3338,3.3347,3.3352,3.3335,3.335,3.3345,3.3346,3.3343,3.3355,3.3337,3.3348,3.3351,3.3354,3.3358,3.3265,3.3356,3.3355,3.3355,3.3355,3.3355,0,3.342,3.3413,3.3422,3.3422,3.3429,3.3404,3.3402,3.341,3.3423,3.342,3.3426,3.3439,3.3448,3.3433,3.3439,3.3452,3.344,3.3454,3.3452,3.3451,3.3375,3.3367,3.3463,3.3463,3.3463,3.3463,3.3463,3.3463,3.3471,3.3496,3.3484,3.3507,3.35,3.3514,3.3515,3.3515,3.3512,3.3528,3.3534,3.3525,3.3517,3.3523,3.353,3.3525,3.3528,3.3547,3.3538,3.3467,3.3457,3.3446,3.3438,3.3548,3.3548,3.3613,3.3613,3.3614]}]]